Weather History for Cincinnati, OH

Change the Weather History Date:

Tuesday, March 4, 2014

  Actual Average Record
Temperature  
Mean Temperature 21 °F -  
Max Temperature 33 °F 53 °F 83 °F (1976)
Min Temperature 9 °F 34 °F 9 °F (2014)
Degree Days  
Heating Degree Days 44    
Moisture  
Dew Point 11 °F    
Average Humidity 68    
Maximum Humidity 88    
Minimum Humidity 52    
Precipitation  
Precipitation 0.00 in - - ()
Sea Level Pressure  
Sea Level Pressure 30.32 in    
Wind  
Wind Speed 3 mph (NNW)    
Max Wind Speed 6 mph    
Max Gust Speed -    
Visibility 10 miles    
Events      
Averages and records for this station are not official NWS values.
T = Trace of Precipitation, MM = Missing Value Source: NWS Daily Summary

Daily Weather History Graph

Daily Weather History Graph

Search for Another Location

Airport:

Trip Planner

Search our weather history database for the weather conditions in past years. The results will help you decide how hot, cold, wet, or windy it might be!

Date:

Astronomy

Mar. 04, 2014 Rise Set
Actual Time 7:05 AM EST 6:33 PM EST
Civil Twilight 6:39 AM EST 7:00 PM EST
Nautical Twilight 6:08 AM EST 7:31 PM EST
Astronomical Twilight 5:37 AM EST 8:02 PM EST
Moon 8:53 AM EST (3/4) 10:37 PM EST (3/4)
Length of Visible Light 12h 21m
Length of Day
11h 27m
Waxing Crescent, 14% of the Moon is Illuminated
Mar 4
Waxing Crescent
Mar 8
First Quarter
Mar 16
Full
Mar 23
Last Quarter
Mar 30
New

Hourly Weather History & Observations

Time (EST) Temp. Windchill Dew Point Humidity Pressure Visibility Wind Dir Wind Speed Gust Speed Precip Events Conditions
12:53 AM 10.0 °F 3.6 °F 3.0 °F 73% 30.42 in 10.0 mi NE 3.5 mph - N/A   Clear
1:53 AM 10.9 °F 2.9 °F 3.9 °F 73% 30.41 in 10.0 mi NE 4.6 mph - N/A   Clear
2:53 AM 10.0 °F - 3.0 °F 73% 30.42 in 10.0 mi Calm Calm - N/A   Clear
3:53 AM 10.0 °F 0.4 °F 1.9 °F 70% 30.42 in 10.0 mi NNE 5.8 mph - N/A   Clear
4:53 AM 9.0 °F -0.9 °F 1.9 °F 73% 30.41 in 10.0 mi ENE 5.8 mph - N/A   Clear
5:53 AM 10.0 °F 3.6 °F 3.0 °F 73% 30.39 in 10.0 mi East 3.5 mph - N/A   Clear
6:53 AM 9.0 °F 2.4 °F 1.9 °F 73% 30.40 in 10.0 mi North 3.5 mph - N/A   Clear
7:53 AM 9.0 °F - 3.0 °F 77% 30.40 in 10.0 mi Calm Calm - N/A   Clear
8:53 AM 12.9 °F - 3.9 °F 67% 30.40 in 10.0 mi Calm Calm - N/A   Clear
9:53 AM 18.0 °F - 6.1 °F 60% 30.38 in 10.0 mi Calm Calm - N/A   Clear
10:53 AM 19.0 °F 13.9 °F 9.0 °F 65% 30.37 in 10.0 mi SW 3.5 mph - N/A   Clear
11:53 AM 23.0 °F 18.4 °F 12.0 °F 63% 30.33 in 10.0 mi WSW 3.5 mph - N/A   Clear
12:53 PM 27.0 °F 23.0 °F 14.0 °F 58% 30.30 in 10.0 mi NW 3.5 mph - N/A   Clear
1:53 PM 28.9 °F - 15.1 °F 56% 30.26 in 10.0 mi Calm Calm - N/A   Clear
2:53 PM 30.0 °F 24.1 °F 17.1 °F 59% 30.23 in 10.0 mi SW 5.8 mph - N/A   Clear
3:53 PM 32.0 °F - 16.0 °F 52% 30.23 in 10.0 mi Calm Calm - N/A   Clear
4:53 PM 33.1 °F - 17.1 °F 52% 30.22 in 10.0 mi Calm Calm - N/A   Clear
5:53 PM 33.1 °F 30.0 °F 17.1 °F 52% 30.23 in 10.0 mi WSW 3.5 mph - N/A   Clear
6:53 PM 30.0 °F 25.2 °F 18.0 °F 61% 30.24 in 10.0 mi South 4.6 mph - N/A   Clear
7:53 PM 26.1 °F - 19.9 °F 78% 30.25 in 10.0 mi Calm Calm - N/A   Clear
8:53 PM 25.0 °F - 19.9 °F 81% 30.25 in 10.0 mi Calm Calm - N/A   Clear
9:53 PM 25.0 °F - 19.0 °F 78% 30.25 in 10.0 mi Calm Calm - N/A   Clear
10:53 PM 24.1 °F - 19.9 °F 84% 30.26 in 10.0 mi Calm Calm - N/A   Clear
11:53 PM 23.0 °F - 19.9 °F 88% 30.25 in 10.0 mi Calm Calm - N/A   Clear